RH
88 89 90 90 90 89 88 88 87 87 87 87 87 87 88 89 86 44 20 22 22 68 57 14 19 24 19 20 18 17 26 24 26 59 18 8 8 6 8 14 13 16 21 26 27
90 91 90 90 90 90 89 88 88 87 87 88 87 87 88 89 29 12 24 70 69 69 19 15 21 19 19 16 14 16 21 19 13 29 14 10 9 7 7 9 17 21 22 25 27
91 92 91 90 90 90 90 88 88 87 87 87 87 87 88 75 18 7 57 72 72 55 11 12 14 14 15 12 10 12 14 11 9 8 8 8 8 8 7 9 14 24 27 29 30
89 90 91 91 90 90 90 89 87 87 87 88 85 85 86 31 13 12 67 73 77 21 18 14 13 12 12 13 8 8 6 6 5 4 4 5 6 8 9 8 6 19 25 28 31
84 89 90 90 90 90 90 90 88 87 88 87 84 85 47 15 8 24 72 62 23 24 22 14 12 11 12 10 8 7 6 5 4 4 4 5 6 8 8 7 6 15 24 28 29
81 87 89 90 90 90 90 89 87 87 88 86 84 86 24 11 5 17 16 16 10 18 17 10 11 10 10 9 9 7 7 6 5 6 6 5 4 4 6 6 6 14 24 26 27
82 84 88 89 90 89 89 87 87 88 86 83 82 42 17 11 4 6 9 14 10 11 12 9 8 9 8 9 7 7 8 8 7 6 6 5 5 5 4 5 6 7 16 23 27
86 87 87 87 88 88 88 86 87 84 84 80 76 26 16 5 4 4 6 9 9 9 9 7 6 6 6 6 8 8 8 9 6 5 5 5 8 5 4 3 5 6 12 18 24
90 90 89 87 87 87 86 88 84 79 72 69 38 22 12 15 5 4 4 4 5 6 6 4 5 7 7 7 7 8 10 9 7 4 5 6 8 6 4 4 5 5 8 12 20
90 90 89 88 88 87 88 81 62 57 52 24 19 16 10 6 5 4 4 4 5 5 5 6 9 10 8 8 11 9 8 7 8 6 6 6 7 6 6 5 6 5 7 8 9
90 90 89 89 88 88 69 23 13 17 14 9 8 8 6 5 5 5 4 5 5 6 8 7 10 12 10 8 8 8 8 9 8 6 7 8 8 7 7 6 6 7 8 8 8
92 91 90 90 90 87 55 11 13 12 14 6 6 6 5 5 6 5 5 6 7 8 7 7 8 6 6 6 8 8 8 8 6 6 6 8 8 7 6 7 6 6 8 7 6
94 94 92 91 89 59 13 12 10 9 14 9 5 5 5 4 5 5 5 6 7 8 7 8 6 5 5 5 6 6 7 7 8 7 6 7 9 10 7 7 8 7 7 6 8
91 94 92 90 58 16 14 11 9 9 15 9 6 6 5 5 6 4 4 6 6 7 6 7 5 5 6 6 6 8 5 5 6 7 8 6 10 14 8 8 8 6 6 6 7
92 92 91 92 42 16 14 10 9 10 20 8 6 4 4 5 5 5 5 6 8 8 7 8 6 7 8 7 6 7 5 6 7 8 8 8 9 11 10 12 10 8 7 6 8
91 90 89 40 36 14 9 9 11 17 18 8 5 6 5 5 5 5 5 6 7 8 8 9 6 7 7 7 6 6 7 7 7 7 12 11 9 10 9 11 9 8 8 10 14
91 89 82 31 16 10 10 13 18 17 9 9 8 6 6 6 6 6 7 8 9 14 14 11 8 6 6 8 7 8 10 14 15 12 13 9 9 13 9 7 8 12 17 14 12
90 88 52 22 15 11 13 16 24 11 10 7 7 7 7 7 6 6 7 8 8 9 12 15 15 9 9 10 11 11 11 14 24 14 12 11 16 12 11 10 8 12 16 14 12
91 20 20 16 14 13 16 18 15 12 9 9 7 9 8 8 8 7 8 8 8 10 18 17 15 9 8 8 9 11 13 10 14 11 11 9 11 13 24 14 14 14 17 16 20
53 24 14 10 10 13 16 23 11 10 9 9 12 11 12 10 10 9 9 8 8 9 11 15 19 10 9 10 9 9 9 17 16 32 30 27 26 55 52 44 39 48 54 61 55
41 19 13 9 8 14 17 13 11 9 11 11 12 13 11 12 12 11 10 8 10 11 11 11 16 17 12 13 13 14 21 24 23 27 40 45 25 35 36 37 47 51 65 66 49
21 20 12 10 14 14 15 13 33 9 10 12 12 13 13 12 14 15 13 10 10 11 14 15 16 20 15 10 10 13 24 26 27 29 25 35 27 32 36 32 55 66 73 85 53
29 19 10 10 16 14 13 12 10 10 10 12 14 13 13 16 21 16 15 11 10 12 20 18 20 23 18 13 13 16 15 21 33 27 32 83 74 28 41 46 67 71 78 79 81
30 21 14 14 13 16 16 14 14 10 12 11 12 14 16 18 16 20 17 12 11 12 45 29 22 28 27 26 19 22 17 14 18 29 33 53 50 32 45 48 57 66 64 86 76
31 22 19 22 15 20 19 17 15 14 11 12 16 15 16 22 19 21 17 15 14 32 18 18 28 24 21 19 18 19 17 14 15 15 19 18 30 56 68 58 57 75 89 80 70
35 27 21 21 21 20 26 19 16 13 12 12 15 12 15 21 22 21 19 23 24 18 18 16 29 28 29 21 19 18 16 14 13 13 12 19 64 81 65 68 67 81 71 85 79
26 24 25 34 21 20 19 17 14 14 14 12 12 13 15 15 14 16 16 18 17 19 22 24 28 35 36 24 22 24 40 32 34 36 48 35 62 52 52 64 73 71 71 70 68
Wind_Speed
19 19 19 19 19 18 19 19 19 19 18 19 19 17 13 13 15 7 12 5 6 14 4 9 14 17 14 17 17 18 15 14 6 17 20 12 8 10 3 11 5 7 12 24 23
19 18 18 19 19 19 18 18 18 18 18 18 18 17 15 12 11 19 12 9 14 15 11 16 16 14 13 18 14 16 15 22 20 24 18 20 14 14 11 6 11 15 21 24 22
20 20 20 21 21 21 20 20 20 19 18 18 18 16 13 13 12 7 5 8 10 15 15 18 12 12 15 16 17 19 17 21 24 23 21 19 19 16 14 14 7 22 21 24 23
20 21 21 22 23 23 22 21 21 19 19 17 18 16 12 7 6 8 9 10 9 13 14 14 15 15 15 18 18 20 20 19 19 21 21 20 18 19 13 16 15 20 26 23 23
23 21 22 23 23 23 23 22 22 21 19 17 15 12 7 9 17 11 8 9 11 13 14 14 15 15 16 16 19 19 19 19 17 20 20 20 18 17 16 15 18 16 23 22 20
23 21 22 23 24 24 23 23 23 22 19 18 12 5 6 15 4 15 11 9 11 14 15 15 14 16 18 19 19 21 22 22 21 22 22 22 20 20 17 18 16 14 22 20 20
20 21 21 23 24 25 24 23 22 21 19 15 8 6 12 16 1 1 8 9 13 15 17 14 15 16 18 21 19 21 23 18 21 23 24 22 18 15 14 11 17 15 16 19 19
20 21 22 24 25 26 25 24 22 20 16 10 3 8 9 9 8 5 9 12 14 15 13 13 16 17 16 18 21 23 25 20 22 24 22 13 14 12 12 15 14 17 16 16 21
21 21 22 24 26 27 27 28 22 14 7 4 6 9 10 4 8 12 12 12 13 13 16 14 14 17 17 18 18 18 19 23 23 21 16 12 11 13 18 11 11 13 8 11 17
20 21 22 25 28 28 30 27 2 6 6 9 11 10 10 3 6 7 9 8 11 7 12 13 11 14 16 15 16 19 19 22 22 22 24 21 14 12 11 17 12 12 12 14 14
22 22 25 27 29 28 19 8 5 7 14 14 5 10 0 3 5 9 0 9 10 9 14 14 14 15 19 20 21 23 23 24 23 23 22 24 22 16 15 16 19 15 16 14 13
22 23 25 28 29 30 11 7 8 7 11 8 6 8 5 4 7 9 4 7 10 12 15 15 16 19 21 17 18 20 23 24 23 22 22 22 24 21 21 16 20 17 16 15 18
23 24 26 28 30 14 5 7 8 9 8 11 10 8 3 6 7 4 4 9 8 13 15 17 16 17 16 15 19 19 19 20 24 22 22 22 24 20 23 16 20 23 19 19 14
24 23 25 29 9 10 2 8 9 5 7 10 8 4 7 10 9 2 4 6 10 12 14 12 15 13 13 16 17 20 20 21 21 21 19 20 17 15 18 19 20 9 12 18 15
21 22 22 13 13 5 10 10 9 6 6 3 8 6 4 7 10 8 3 9 12 13 11 15 15 14 15 16 17 19 21 21 21 21 23 22 16 15 15 16 14 13 16 19 13
23 20 22 3 9 8 10 10 8 7 3 7 1 2 9 14 9 4 11 11 12 9 16 16 14 17 16 8 12 17 19 19 19 17 16 20 19 16 16 15 18 16 14 4 15
26 26 14 9 6 11 10 7 7 8 3 4 3 5 9 9 8 3 8 10 10 6 12 17 14 7 4 10 14 17 19 12 15 13 16 17 18 13 16 17 9 5 16 10 4
28 30 8 8 10 10 8 9 7 1 1 6 8 9 11 9 9 3 11 13 6 2 10 9 12 17 18 16 20 13 16 11 19 17 18 21 12 11 16 17 6 4 10 10 1
31 7 7 9 10 6 8 8 6 10 7 10 12 11 6 8 4 6 9 8 8 8 8 11 15 21 19 17 19 16 14 18 18 19 18 15 20 8 26 10 17 15 17 5 5
10 10 11 6 5 7 8 11 12 6 7 9 12 1 12 5 5 3 4 7 4 8 10 14 19 18 16 18 15 18 13 14 8 11 11 15 19 7 23 23 22 28 23 15 27
6 7 7 5 5 7 9 13 5 3 6 8 12 8 10 7 6 11 7 8 10 9 12 16 12 16 18 16 19 12 11 7 7 3 7 5 9 10 14 14 22 19 24 24 15
7 7 7 4 7 8 11 8 4 9 5 6 6 9 11 11 8 11 12 5 12 11 12 11 10 13 20 20 15 9 5 4 5 9 11 8 13 12 15 15 11 16 19 25 29
7 11 6 3 8 8 5 4 6 9 8 7 7 5 8 8 7 9 10 12 7 9 10 9 9 14 12 17 7 17 14 4 9 10 13 5 9 21 12 11 12 12 5 24 9
7 6 7 6 9 11 13 12 11 7 6 12 11 13 11 11 12 10 12 10 9 3 3 4 11 15 14 19 19 19 22 20 14 4 12 13 16 7 17 8 4 10 12 10 1
6 5 7 8 9 12 13 14 14 15 10 5 6 12 13 12 12 12 14 14 13 2 9 9 14 16 20 23 23 23 25 23 21 20 20 17 4 4 11 11 5 6 6 12 7
7 7 12 12 15 13 11 14 15 16 13 13 11 15 12 11 8 14 14 12 12 15 15 14 15 18 21 21 23 24 25 23 23 17 23 10 13 7 7 13 5 8 2 9 6
9 7 7 9 13 12 11 14 13 8 7 13 12 14 14 11 12 12 15 17 18 18 16 17 13 14 18 20 21 19 17 18 25 11 22 14 15 13 11 9 9 8 10 6 5
Wind_Direction
354 351 350 346 342 339 337 336 332 330 325 319 318 319 317 313 296 232 267 267 173 167 222 215 220 234 244 263 264 270 280 281 63 8 286 3 24 346 106 147 99 81 69 136 141
351 347 345 343 340 336 333 330 325 323 319 314 312 316 320 326 282 272 241 141 149 159 197 205 215 226 248 254 260 257 266 284 303 200 295 338 347 329 324 315 133 108 117 129 149
349 344 341 340 337 333 330 328 322 320 315 312 311 314 318 310 275 243 127 142 169 176 224 227 240 233 252 263 263 261 267 284 301 311 315 308 309 297 332 320 163 136 140 146 156
343 341 338 336 333 330 327 323 317 314 312 309 310 314 320 250 286 93 158 181 180 203 236 236 240 252 249 265 265 259 260 268 292 306 303 297 296 293 306 298 315 147 150 155 162
340 337 334 331 328 324 321 316 314 313 309 306 309 311 288 229 255 130 154 166 172 204 225 237 241 247 256 271 282 285 291 293 288 297 303 297 285 281 277 278 295 120 145 158 171
338 333 329 327 324 318 317 312 313 310 305 303 303 291 241 256 93 144 176 177 186 205 239 251 249 259 278 282 289 291 287 289 288 284 279 272 273 273 265 267 257 153 152 163 176
333 328 326 322 317 315 314 311 310 302 298 295 286 238 260 249 289 250 191 215 228 212 241 247 256 277 281 281 278 289 291 292 288 280 274 269 263 275 286 259 262 249 172 166 176
328 327 324 322 317 315 312 312 303 297 288 280 239 228 256 42 336 262 254 220 206 233 253 296 300 291 282 284 284 280 277 278 278 274 271 237 268 270 269 276 281 238 179 175 174
327 326 321 319 319 318 318 310 299 287 243 241 228 226 253 146 215 216 219 229 249 244 245 254 259 263 269 265 269 260 262 263 263 262 263 245 253 285 276 266 284 287 275 199 184
326 324 322 321 321 324 323 297 284 273 209 231 259 251 250 259 347 311 267 251 268 226 260 236 244 254 249 248 260 275 285 292 300 305 310 301 263 248 269 291 270 263 257 235 228
330 329 326 324 323 325 339 329 220 185 230 281 291 275 273 295 216 211 153 212 241 249 262 235 236 249 242 251 260 270 275 281 286 287 287 290 293 274 275 263 277 234 243 251 240
329 329 327 325 322 319 295 3 31 326 300 265 262 253 229 288 268 189 224 220 186 239 245 238 249 254 253 262 270 277 282 284 285 288 282 273 275 276 275 269 269 279 264 252 234
331 327 325 323 320 293 315 13 325 325 263 241 226 276 234 231 271 263 213 275 268 266 258 259 274 291 290 281 281 277 278 283 288 284 276 279 278 274 270 263 252 249 246 260 242
329 324 323 325 299 339 24 351 336 344 274 137 201 192 230 230 261 124 284 300 283 286 289 294 285 286 297 290 289 285 295 302 292 289 284 285 283 270 279 261 256 203 239 242 235
318 319 321 325 313 319 346 321 328 266 275 150 128 90 269 245 338 180 152 276 263 289 309 287 306 301 293 301 312 298 305 300 299 289 288 281 272 278 262 276 266 259 250 247 259
317 321 330 187 219 290 324 319 278 234 230 137 306 224 254 205 231 282 262 186 261 263 269 261 243 252 288 255 279 277 276 277 277 273 266 273 268 272 271 282 277 246 260 61 341
316 314 311 309 308 336 317 276 249 251 170 109 27 314 309 278 312 187 297 281 238 325 327 318 285 339 13 309 311 325 316 299 289 273 281 270 263 264 269 274 304 114 76 355 26
316 311 246 246 298 298 291 267 265 14 26 69 284 303 260 17 280 303 283 263 167 332 334 345 319 5 348 319 298 294 290 285 289 286 291 297 297 264 283 327 230 122 121 280 280
309 271 246 224 226 282 277 250 328 16 19 350 308 263 230 150 265 295 270 305 21 32 353 309 311 320 304 312 302 317 293 315 303 286 278 279 289 77 2 12 356 348 320 131 76
316 288 254 128 229 267 266 262 303 30 344 307 296 329 304 356 313 285 307 68 319 43 342 314 304 302 314 327 297 276 295 304 304 324 327 317 315 43 15 354 4 13 344 349 343
264 267 109 226 240 253 258 290 351 62 346 306 309 305 288 301 315 304 302 359 50 359 332 312 320 320 314 305 320 349 5 1 305 299 314 247 285 64 21 359 341 341 11 334 304
294 279 130 263 256 239 257 356 11 295 213 266 275 283 290 302 301 303 297 339 39 347 318 359 310 306 316 298 286 343 60 18 299 284 288 296 286 22 19 359 342 343 8 359 274
288 293 249 235 265 278 266 248 269 286 270 269 275 268 292 301 287 278 311 339 332 313 42 342 312 304 310 317 156 343 313 237 211 275 289 110 274 288 4 27 9 325 43 289 337
279 292 190 201 250 280 292 303 282 195 269 285 291 303 298 274 268 272 283 285 290 316 139 304 275 302 299 306 309 305 300 290 260 268 264 211 235 298 336 282 30 349 245 263 95
247 304 4 299 331 343 331 317 304 296 200 250 281 268 262 278 297 300 292 305 311 111 318 316 286 296 298 302 299 292 287 288 293 289 281 299 36 53 312 281 253 277 320 293 47
296 344 342 304 296 274 275 267 276 281 278 288 276 274 283 306 290 301 315 316 314 312 299 289 289 283 283 281 278 278 277 272 268 279 271 347 77 253 257 291 296 22 64 60 10
335 324 276 288 288 277 265 276 293 291 323 298 287 301 296 310 346 327 305 291 281 274 274 269 274 293 289 293 287 280 9 359 352 2 360 346 47 39 13 9 10 6 353 43 13